Location: ????
(30.1475°N, 31.1342°E)
Time: 16:24:39
(UTC+00:00)

Cosmos 1605 Rocket - Pass Details

Date: 11 April 2023
Orbit: 943 x 1006 km, 82.9° (Epoch: 28 May)

Event Time Altitude Azimuth Distance (km) Brightness Sun altitude
Rises 02:54:24 0° 187° (S) 3,694 6.8 -9.1°
Reaches altitude 10° 02:56:55 10° 188° (S) 2,755 6.1 -8.6°
Maximum altitude 03:03:16 80° 275° (W) 1,023 4.1 -7.3°
Drops below altitude 10° 03:09:41 10° 3° (N) 2,785 6.6 -5.9°
Sets 03:12:14 0° 4° (N) 3,737 7.3 -5.4°
